Location: Three Oaks Observatory
(31.1535°N, 83.5955°W)
Time: 09:05:48
(UTC-05:00)

FALCONSAT 3 - Pass Details

Date: 27 October 2019
Orbit: 454 x 457 km, 35.4° (Epoch: 11 November)

Event Time Altitude Azimuth Distance (km) Brightness Sun altitude
Exits shadow 05:15:57 12° 95° (E) 1,437 ? -32.6°
Drops below altitude 10° 05:16:19 10° 96° (E) 1,579 ? -32.5°
Sets 05:18:30 0° 100° (E) 2,449 ? -32.1°
